Regional Weather Roundup
Issued by NWS

Home | Current Version | Previous Version | Graphics & Text | Print | Product List | Glossary On
Versions: 1 2 3 4 5 6 7 8 9 10 11 12 13 14 15 16 17 18 19 20 21 22 23 24 25 26 27 28 29 30 31 32 33 34 35 36 37 38 39 40 41 42 43 44 45 46 47 48 49 50
000
ASUS43 KDMX 210907
RWRIA

WEATHER ROUNDUP FOR IOWA
NATIONAL WEATHER SERVICE DES MOINES IA
300 AM CST SUN DEC 21 2014

NOTE: "FAIR" INDICATES FEW OR NO CLOUDS BELOW 12,000 FEET WITH NO
SIGNIFICANT WEATHER AND/OR OBSTRUCTIONS TO VISIBILITY.

* - THESE STATIONS ARE NOT NWS STATIONS...THUS NOT UNDER NWS
QUALITY CONTROL.  THEY ALSO DO NOT REPORT WEATHER SUCH
AS PRECIPITATION OR FOG.

IAZ001>003-012>014-020>022-031>034-043>046-211000-
   NORTHWEST IOWA

CITY           SKY/WX    TMP DP  RH WIND       PRES   REMARKS
CARROLL *      CLOUDY    36  36 100 S10       29.96F FOG     WCI  28
CHEROKEE *     CLOUDY    32  32 100 S9        29.94F FOG     WCI  24
DENISON *      CLOUDY    36  36 100 S10G16    29.93F FOG     WCI  28
LE MARS *      FOG       32  32 100 S6        29.93F VSB 1/2 WCI  26
ORANGE CITY *  FOG       32  30  93 SE7       29.91F VSB 0   WCI  26
SHELDON *      FOG       30  30 100 SE12      29.90F VSB 1/4 WCI  21
SIOUX CITY     FOG       34  33  96 SE8       29.93F VSB 1/2 WCI  27
SPENCER        CLOUDY    32  30  92 SE7       29.94F FOG     WCI  26
STORM LAKE *   FOG       32  32 100 S9        29.94F VSB<1/4 WCI  24
$$

IAZ055>058-069>071-079>083-090>094-211000-
   SOUTHWEST IOWA

CITY           SKY/WX    TMP DP  RH WIND       PRES   REMARKS
ATLANTIC *     CLOUDY    37  37 100 S13       29.99F WCI  29
AUDUBON *      PTCLDY    37  34  87 S10       29.98F FOG     WCI  30
CLARINDA *     CLOUDY    37  36  93 S13       30.05S WCI  29
COUNCIL BLFS * CLOUDY    36  36 100 S10       29.96F FOG     WCI  28
CRESTON *      CLOUDY    36  36 100 S15       30.04S FOG     WCI  26
HARLAN  *      CLOUDY    37  37 100 S13       30.00F FOG     WCI  29
LAMONI         CLOUDY    36  34  92 S14       30.07F WCI  27
RED OAK *      CLOUDY    37  36  93 S10       30.01F WCI  30
SHENANDOAH *   CLOUDY    37  36  93 S12       30.02F FOG     WCI  30
$$

IAZ047>049-059>061-072>074-084-211000-
   CENTRAL IOWA

CITY           SKY/WX    TMP DP  RH WIND       PRES   REMARKS
AMES           CLOUDY    35  34  96 S8        30.03F FOG     WCI  29
ANKENY *       CLOUDY    37  37 100 S8G15     30.05F FOG     WCI  31
CHARITON *     CLOUDY    37  36  93 S13       30.07F WCI  29
DES MOINES     CLOUDY    39  35  86 S10       30.05F WCI  32
GRINNELL*      CLOUDY    36  36 100 S9        30.08F FOG     WCI  29
KNOXVILLE *    CLOUDY    37  36  93 S9        30.06F WCI  31
MARSHALLTOWN   FOG       35  35 100 S12       30.05F VSB 1/4 WCI  27
PELLA *        CLOUDY    37  36  93 S9        30.09F FOG     WCI  31
PERRY *        CLOUDY    36  36 100 S10       30.01F FOG     WCI  28
$$

IAZ004>006-015-016-023>025-035-036-211000-
   NORTH CENTRAL IOWA

CITY           SKY/WX    TMP DP  RH WIND       PRES   REMARKS
ALGONA *       FOG       34  34 100 S13       29.97F VSB 1/4 WCI  25
CLARION *      CLOUDY    34  34 100 S15       29.99F FOG     WCI  24
ESTHERVILLE    CLOUDY    31  30  96 S10       29.95F FOG     WCI  22
FORT DODGE *   CLOUDY    36  34  93 S10       29.99F WCI  28
MASON CITY     FOG       32  31  96 SE14      30.02F VSB 3/4 WCI  22
FOREST CITY *  CLOUDY    32  32 100 SE10      30.00F FOG     WCI  24
IOWA FALLS *   SNOW      34  34 100 SE10      30.04F VSB 1/4 WCI  26
$$

IAZ007>011-017>019-026>030-037>042-050>054-066-211000-
   NORTHEAST IOWA

CITY           SKY/WX    TMP DP  RH WIND       PRES   REMARKS
CEDAR RAPIDS   CLOUDY    34  34 100 S9        30.10F FOG     WCI  27
CHARLES CITY * FOG       32  32 100 SE9       30.05F VSB 1/2 WCI  24
CLINTON *      CLOUDY    34  30  86 SE7       30.20S WCI  28
DECORAH *      FOG       32  32 100 SE9       30.07F VSB 1/4 WCI  24
DUBUQUE        FOG       32  31  96 S12       30.13F VSB 1/4 WCI  23
MONTICELLO *   FOG       34  34 100 SE8       30.12F VSB 1/2 WCI  27
OELWEIN *      FOG       32  32 100 SE12      30.08F VSB 1/4 WCI  23
WATERLOO       FOG       33  33 100 S10       30.07F VSB 1/2 WCI  25
$$

IAZ064-065-067-068-078-211000-
   EAST CENTRAL IOWA

CITY           SKY/WX    TMP DP  RH WIND       PRES   REMARKS
DAVENPORT      CLOUDY    34  31  88 S10       30.17S FOG     WCI  26
IOWA CITY      CLOUDY    35  34  96 SE7       30.15S FOG     WCI  29
MT. PLEASANT * CLOUDY    36  36 100 S8        30.15S FOG     WCI  29
MUSCATINE *    CLOUDY    36  34  93 SE6       30.16F FOG     WCI  31
QUAD CITIES    CLOUDY    35  32  88 S6        30.16F FOG     WCI  30
$$

IAZ062-063-075>077-085>089-095>099-211000-
   SOUTHEAST IOWA

CITY           SKY/WX    TMP DP  RH WIND       PRES   REMARKS
BURLINGTON     CLOUDY    38  35  89 S10       30.16S WCI  31
FAIRFIELD *    CLOUDY    37  34  87 S9        30.13S WCI  31
FORT MADISON * CLOUDY    37  37 100 S8        30.17S FOG     WCI  31
KEOKUK *       CLOUDY    37  36  93 S8        30.16S WCI  31
OSKALOOSA *    CLOUDY    36  36 100 S9        30.11S FOG     WCI  29
CENTERVILLE *  MOCLDY    37  37 100 S9        30.12S WCI  31
OTTUMWA        CLOUDY    37  34  89 S9        30.11S WCI  30
WASHINGTON *   CLOUDY    36  36 100 S8        30.13F FOG     WCI  29
$$

ABBREVIATIONS USED IN REMARKS
   TC - TEMPERATURES IN CELSIUS
  WCI - WIND CHILL INDEX
   HX - HEAT INDEX
  VSB - VISIBILITY
$$



USA.gov is the U.S. government's official web portal to all federal, state and local government web resources and services.